Stations météo

réclame
Mon MeteoGroup
Solenzara, France (7765): Température de l'air & dewpoint: 14.11.2017 12:00:00 - 20.11.2017 12:00:00 (CET)Solenzara, France (7765): Température de l'air 5cm: 14.11.2017 12:00:00 - 20.11.2017 12:00:00 (CET)Solenzara, France (7765): Température de l'air -20cm: 14.11.2017 12:00:00 - 20.11.2017 12:00:00 (CET)Solenzara, France (7765): Vitesse du vent & gusts: 14.11.2017 12:00:00 - 20.11.2017 12:00:00 (CET)Solenzara, France (7765): Direction du vent: 14.11.2017 12:00:00 - 20.11.2017 12:00:00 (CET)Solenzara, France (7765): reduced air pressure: 14.11.2017 12:00:00 - 20.11.2017 12:00:00 (CET)Solenzara, France (7765): visibility: 14.11.2017 12:00:00 - 20.11.2017 12:00:00 (CET)Solenzara, France (7765): Ensoleillement: 14.11.2017 12:00:00 - 20.11.2017 12:00:00 (CET)Solenzara, France (7765): Quantités de précipitations: 14.11.2017 12:00:00 - 20.11.2017 12:00:00 (CET)
Date & Time tt [°C] td [°C] tt 5cm [°C] tt -20cm [°C] ff [km/h] ff [knt] fx [km/h] fx [knt] dd ppp [hPa] vv [km] sd [min] rr [mm]
20.11.2017 12:00:00 16,3 9,9 20,1 13,3 15 8 22 12 SSE 1020,3 10 60 0,0
20.11.2017 11:00:00 16,6 8,8 20,4 13,2 8 4 15 8 S 1020,9 10 60 0,0
20.11.2017 10:00:00 16,3 7,2 14,3 13,2 0 0 12 6 N 1020,7 10 60 0,0
20.11.2017 09:00:00 11,9 3,6 10,1 13,3 8 4 19 11 W 1020,4 10 60 0,0
20.11.2017 08:00:00 9,0 2,3 7,1 13,4 13 7 24 13 W 1020,0 10 32 0,0
20.11.2017 07:00:00 8,5 1,9 6,8 13,5 13 7 20 11 W 1019,6 10 0 0,0
20.11.2017 06:00:00 8,4 2,0 6,8 13,6 9 5 16 9 W 1019,2 10 0 0,0
20.11.2017 05:00:00 8,8 2,1 7,0 13,7 11 6 18 10 W 1018,5 10 0 0,0
20.11.2017 04:00:00 8,7 2,0 7,2 13,8 5 3 20 11 WNW 1017,9 10 0 0,0
20.11.2017 03:00:00 9,6 2,0 7,6 13,9 13 7 23 13 W 1017,5 10 0 0,0
20.11.2017 02:00:00 9,1 2,2 7,7 14,0 13 7 22 12 W 1017,7 10 0 0,0
20.11.2017 01:00:00 9,2 2,3 7,6 14,2 11 6 21 12 W 1017,5 10 0 0,0
20.11.2017 00:00:00 9,7 2,5 8,3 14,2 11 6 21 11 W 1017,2 10 0 0,0
19.11.2017 23:00:00 9,8 2,9 8,3 14,3 11 6 25 13 W 1016,7 10 0 0,0
19.11.2017 22:00:00 10,7 3,2 9,1 14,4 11 6 22 12 W 1016,2 10 0 0,0
19.11.2017 21:00:00 11,1 3,9 9,5 14,5 13 7 23 12 W 1015,6 10 0 0,0
19.11.2017 20:00:00 11,4 5,3 9,1 14,5 11 6 22 12 W 1015,1 10 0 0,0
19.11.2017 19:00:00 10,7 6,1 9,2 14,5 10 5 16 9 W 1014,8 60 0 0,0
19.11.2017 18:00:00 11,7 7,6 10,1 14,4 8 4 13 7 W 1014,1 10 0 0,0
19.11.2017 17:00:00 13,6 10,0 11,9 14,3 5 3 8 4 - 1013,1 10 0 0,0
19.11.2017 16:00:00 15,0 10,0 14,5 14,2 4 2 11 6 NNE 1012,5 10 36 0,0
19.11.2017 15:00:00 16,0 9,9 17,7 13,9 5 3 15 8 ENE 1012,4 10 60 0,0
19.11.2017 14:00:00 16,0 9,9 18,9 13,8 9 5 21 12 NE 1012,9 10 60 0,0
19.11.2017 13:00:00 16,0 10,3 18,4 13,6 15 8 20 11 NNE 1013,3 10 60 0,0
19.11.2017 12:00:00 15,4 9,3 18,1 13,5 5 3 14 7 NE 1013,7 10 60 0,0
19.11.2017 11:00:00 15,0 9,1 18,5 13,4 5 3 14 8 - 1014,6 10 60 0,0
19.11.2017 10:00:00 13,9 7,9 12,6 13,4 0 0 10 5 N 1014,9 10 60 0,0
19.11.2017 09:00:00 11,4 4,4 10,4 13,5 8 4 18 10 W 1015,3 10 60 0,0
19.11.2017 08:00:00 8,8 3,6 7,0 13,6 11 6 19 10 W 1015,4 10 28 0,0
19.11.2017 07:00:00 8,3 3,7 7,0 13,7 13 7 22 12 W 1015,1 10 0 0,0
19.11.2017 06:00:00 8,6 3,6 7,3 13,8 13 7 24 13 W 1015,4 10 0 0,0
19.11.2017 05:00:00 8,7 4,1 7,4 13,9 13 7 23 12 W 1016,0 10 0 0,0
19.11.2017 04:00:00 9,0 4,2 7,7 14,0 13 7 23 13 W 1016,1 10 0 0,0
19.11.2017 03:00:00 9,1 4,5 7,8 14,2 13 7 23 12 W 1016,3 10 0 0,0
19.11.2017 02:00:00 9,4 4,8 8,1 14,2 15 8 22 12 W 1016,4 10 0 0,0
19.11.2017 01:00:00 9,6 5,2 8,3 14,4 13 7 21 12 W 1016,7 10 0 0,0
19.11.2017 00:00:00 9,8 5,6 8,5 14,4 13 7 20 11 W 1017,4 10 0 0,0
18.11.2017 23:00:00 10,1 6,1 8,7 14,5 11 6 21 12 W 1017,4 10 0 0,0
18.11.2017 22:00:00 10,3 6,4 8,8 14,6 11 6 19 10 W 1017,4 10 0 0,0
18.11.2017 21:00:00 10,6 6,9 9,1 14,6 11 6 19 10 W 1017,4 10 0 0,0
18.11.2017 20:00:00 11,1 7,4 9,8 14,7 11 6 21 11 W 1017,2 10 0 0,0
18.11.2017 19:00:00 11,4 7,9 10,0 14,7 9 5 16 9 W 1017,0 10 0 0,0
18.11.2017 18:00:00 12,1 8,2 10,5 14,6 9 5 13 7 W 1016,7 48 0 0,0
18.11.2017 17:00:00 14,4 6,7 11,6 14,6 0 0 14 8 N 1016,3 10 2 0,0
18.11.2017 16:00:00 16,0 7,2 15,2 14,4 11 6 23 12 NE 1016,1 10 37 0,0
18.11.2017 15:00:00 16,5 8,2 17,0 14,3 15 8 26 14 NE 1016,0 10 60 0,0
18.11.2017 14:00:00 16,4 8,9 18,7 14,1 21 11 30 16 NE 1015,9 10 60 0,0
18.11.2017 13:00:00 16,6 8,0 18,9 13,9 21 11 30 16 NE 1016,3 10 60 0,0
18.11.2017 12:00:00 16,5 7,4 19,2 13,7 15 8 24 13 NE 1016,7 10 60 0,0
18.11.2017 11:00:00 16,3 7,2 18,4 13,6 5 3 11 6 - 1017,2 10 60 0,0
18.11.2017 10:00:00 15,3 7,8 17,0 13,7 8 4 14 8 ENE 1017,0 10 60 0,0
18.11.2017 09:00:00 13,4 7,6 11,9 13,7 6 3 16 9 WSW 1016,8 57 60 0,0
18.11.2017 08:00:00 10,8 6,7 8,7 13,8 9 5 18 10 W 1016,5 10 24 0,0
18.11.2017 07:00:00 9,7 6,4 8,1 13,9 11 6 21 11 W 1016,1 10 0 0,0
18.11.2017 06:00:00 9,4 6,1 8,1 14,0 13 7 21 11 W 1016,0 60 0 0,0
18.11.2017 05:00:00 9,4 6,1 8,2 14,1 11 6 18 10 W 1015,8 10 0 0,0
18.11.2017 04:00:00 10,0 6,5 8,2 14,2 11 6 18 10 W 1015,7 10 0 0,0
18.11.2017 03:00:00 9,5 6,6 7,8 14,3 8 4 18 10 W 1016,1 56 0 0,0
18.11.2017 02:00:00 10,4 6,5 9,0 14,4 11 6 18 10 W 1015,9 10 0 0,0
18.11.2017 01:00:00 10,5 6,8 9,1 14,4 11 6 17 9 W 1016,1 60 0 0,0
18.11.2017 00:00:00 10,4 6,9 9,2 14,5 11 6 18 10 W 1016,2 10 0 0,0
17.11.2017 23:00:00 10,5 7,2 8,6 14,6 11 6 14 8 W 1016,1 10 0 0,0
17.11.2017 22:00:00 11,0 7,5 9,2 14,7 4 2 19 10 - 1016,2 10 0 0,0
17.11.2017 21:00:00 11,1 7,6 10,1 14,7 9 5 18 10 WNW 1015,9 10 0 0,0
17.11.2017 20:00:00 12,0 8,1 10,6 14,7 8 4 19 10 W 1015,7 10 0 0,0
17.11.2017 19:00:00 12,7 8,6 11,3 14,7 9 5 17 9 W 1015,3 10 0 0,0
17.11.2017 18:00:00 12,9 9,2 11,6 14,6 9 5 14 8 W 1015,1 10 0 0,0
17.11.2017 17:00:00 14,5 9,5 12,4 14,5 5 3 9 5 SW 1014,8 10 16 0,0
17.11.2017 16:00:00 17,1 9,5 16,8 14,3 8 4 15 8 SSW 1014,8 10 60 0,0
17.11.2017 15:00:00 17,8 10,2 19,9 14,1 11 6 15 8 S 1014,8 10 60 0,0
17.11.2017 14:00:00 17,4 9,6 22,2 13,8 5 3 13 7 SSE 1015,1 10 60 0,0
17.11.2017 13:00:00 17,4 9,6 20,8 13,6 9 5 16 8 E 1015,5 55 60 0,0
17.11.2017 12:00:00 17,0 9,9 19,9 13,5 9 5 18 10 ENE 1016,1 10 60 0,0
17.11.2017 11:00:00 16,5 9,2 19,1 13,3 9 5 17 9 NE 1016,5 10 60 0,0
17.11.2017 10:00:00 16,2 9,1 16,3 13,3 9 5 18 10 N 1016,5 10 60 0,0
17.11.2017 09:00:00 13,3 6,9 12,1 13,4 8 4 16 9 W 1016,5 10 60 0,0
17.11.2017 08:00:00 10,6 4,9 8,3 13,5 11 6 22 12 W 1016,3 10 32 0,0
17.11.2017 07:00:00 9,6 4,4 8,3 13,6 11 6 23 12 W 1016,0 10 0 0,0
17.11.2017 06:00:00 9,7 4,5 8,4 13,6 13 7 23 13 W 1015,8 10 0 0,0
17.11.2017 05:00:00 10,0 4,1 8,7 13,7 13 7 21 11 W 1015,4 10 0 0,0
17.11.2017 04:00:00 10,1 4,0 8,6 13,8 11 6 20 11 W 1015,5 10 0 0,0
17.11.2017 03:00:00 10,0 4,1 8,1 13,9 11 6 19 10 W 1015,9 10 0 0,0
17.11.2017 02:00:00 9,8 4,0 8,5 14,0 12 7 18 10 W 1015,9 60 0 0,0
17.11.2017 01:00:00 10,0 4,1 8,5 14,1 11 6 18 10 W 1016,2 10 0 0,0
17.11.2017 00:00:00 10,2 4,3 8,5 14,2 11 6 21 11 W 1016,3 10 0 0,0
16.11.2017 23:00:00 10,2 4,8 8,8 14,3 13 7 19 10 W 1016,4 10 0 0,0
16.11.2017 22:00:00 10,5 5,3 8,6 14,3 11 6 18 10 W 1016,4 10 0 0,0
16.11.2017 21:00:00 10,7 5,7 9,2 14,3 8 4 23 12 WNW 1016,3 10 0 0,0
16.11.2017 20:00:00 11,1 6,6 9,8 14,4 11 6 21 12 W 1015,9 10 0 0,0
16.11.2017 19:00:00 11,6 7,3 9,7 14,3 9 5 14 8 W 1015,8 10 0 0,0
16.11.2017 18:00:00 12,6 7,7 10,8 14,3 5 3 18 10 WNW 1015,6 10 0 0,0
16.11.2017 17:00:00 13,7 8,7 12,2 14,2 5 3 13 7 W 1015,6 10 17 0,0
16.11.2017 16:00:00 16,4 9,1 15,7 14,1 5 3 32 17 N 1015,7 10 60 0,0
16.11.2017 15:00:00 16,5 9,7 17,2 13,9 23 13 32 17 NE 1015,7 56 60 0,0
16.11.2017 14:00:00 17,7 6,8 17,7 13,7 18 10 34 18 NNE 1015,7 10 60 0,0
16.11.2017 13:00:00 17,7 8,8 19,1 13,5 24 13 34 18 NNE 1015,9 10 60 0,0
16.11.2017 12:00:00 16,5 7,7 17,9 13,4 21 11 38 20 NNE 1017,1 10 60 0,0
16.11.2017 11:00:00 16,3 8,0 17,3 13,3 18 10 31 17 N 1017,7 10 60 0,0
16.11.2017 10:00:00 15,2 7,2 14,3 13,3 15 8 21 12 NNE 1017,1 10 60 0,0
16.11.2017 09:00:00 13,4 6,0 11,3 13,3 15 8 21 11 N 1017,3 10 60 0,0
16.11.2017 08:00:00 9,9 5,9 7,7 13,4 11 6 16 9 W 1017,3 10 19 0,0
16.11.2017 07:00:00 8,9 5,6 7,0 13,5 10 5 16 8 W 1017,1 60 0 0,0
16.11.2017 06:00:00 9,4 5,9 7,9 13,5 9 5 15 8 W 1016,7 10 0 0,0
16.11.2017 05:00:00 10,8 6,0 9,0 13,5 5 3 21 11 NW 1016,6 10 0 0,0
16.11.2017 04:00:00 11,3 6,4 10,0 13,6 13 7 24 13 NNW 1016,5 10 0 0,0
16.11.2017 03:00:00 12,0 6,7 10,7 13,5 11 6 19 11 NNW 1016,7 10 0 0,0
16.11.2017 02:00:00 11,7 7,0 10,8 13,6 9 5 20 11 NNW 1016,8 10 0 0,0
16.11.2017 01:00:00 11,8 7,3 11,2 13,6 13 7 24 13 NNW 1016,8 10 0 0,0
16.11.2017 00:00:00 12,1 7,8 11,7 13,6 13 7 27 15 NNW 1017,0 10 0 0,0
15.11.2017 23:00:00 12,5 8,6 12,1 13,5 18 10 32 18 N 1017,3 10 0 0,0
15.11.2017 22:00:00 12,6 8,1 12,2 13,5 15 8 29 16 N 1016,9 10 0 0,0
15.11.2017 21:00:00 13,0 8,1 12,5 13,5 15 8 29 16 N 1016,5 10 0 0,0
15.11.2017 20:00:00 13,3 7,7 12,5 13,5 22 12 33 18 N 1016,0 10 0 0,0
15.11.2017 19:00:00 13,2 7,4 12,8 13,4 15 8 23 13 N 1016,1 10 0 0,0
15.11.2017 18:00:00 13,7 6,8 12,9 13,4 16 9 22 12 N 1015,6 10 0 0,0
15.11.2017 17:00:00 13,3 6,9 12,7 13,3 9 5 21 11 N 1014,9 10 0 0,0
15.11.2017 16:00:00 13,8 7,3 13,5 13,2 13 7 24 13 NNE 1014,9 10 0 0,0
15.11.2017 15:00:00 14,3 7,6 14,1 13,1 18 10 29 15 NNE 1014,6 10 0 0,0
15.11.2017 14:00:00 14,7 7,3 14,8 13,0 22 12 39 21 NNE 1014,3 10 0 0,0
15.11.2017 13:00:00 15,1 6,9 14,6 13,0 24 13 32 18 NNE 1014,3 10 8 0,0
15.11.2017 12:00:00 14,2 6,5 14,1 12,9 22 12 43 23 N 1014,5 10 0 0,0
15.11.2017 11:00:00 13,9 6,0 13,4 12,9 31 17 45 24 N 1015,0 10 0 0,0
15.11.2017 10:00:00 13,9 5,0 13,2 12,9 29 16 44 24 N 1014,8 10 0 0,0
15.11.2017 09:00:00 13,9 4,2 11,9 12,9 28 15 40 21 N 1013,9 10 0 0,0
15.11.2017 08:00:00 12,2 4,7 11,5 12,9 22 12 35 19 N 1013,4 10 0 0,0
15.11.2017 07:00:00 12,2 4,2 11,4 12,9 24 13 53 29 N 1012,8 10 0 0,0
15.11.2017 06:00:00 11,9 3,9 10,2 13,0 26 14 42 23 N 1012,5 60 0 0,0
15.11.2017 05:00:00 11,0 4,7 9,7 13,0 16 9 40 22 N 1012,1 10 0 0,0
15.11.2017 04:00:00 11,1 4,8 9,7 13,0 28 15 59 32 N 1012,6 10 0 0,2
15.11.2017 03:00:00 12,2 2,9 10,3 13,0 34 18 72 39 N 1012,6 10 0 0,0
15.11.2017 02:00:00 11,6 4,1 10,8 13,0 34 18 60 33 N 1012,5 10 0 0,0
15.11.2017 01:00:00 12,3 3,5 11,5 13,0 31 17 47 26 N 1012,3 10 0 0,0
15.11.2017 00:00:00 12,6 2,4 11,6 13,1 31 17 67 36 N 1013,0 10 0 0,0
14.11.2017 23:00:00 12,5 2,3 10,8 13,1 34 18 51 27 N 1013,6 10 0 0,0
14.11.2017 22:00:00 12,2 2,1 11,2 13,2 22 12 60 33 N 1012,6 60 0 0,0
14.11.2017 21:00:00 12,2 3,2 10,5 13,2 34 18 53 29 N 1012,9 10 0 0,0
14.11.2017 20:00:00 11,7 3,5 10,4 13,2 24 13 45 25 NNW 1012,6 60 0 0,0
14.11.2017 19:00:00 11,3 4,3 9,8 13,2 22 12 41 22 N 1013,1 10 0 0,0
14.11.2017 18:00:00 10,9 4,8 8,9 13,2 26 14 44 24 NNW 1012,8 10 0 0,4
14.11.2017 17:00:00 11,5 4,9 9,3 13,2 24 13 41 22 NNW 1012,1 10 0 0,2
14.11.2017 16:00:00 11,1 5,4 9,7 13,2 24 13 37 20 N 1011,9 10 0 0,0
14.11.2017 15:00:00 10,5 6,6 9,4 13,3 26 14 47 26 N 1011,7 10 0 0,2
14.11.2017 14:00:00 10,9 5,0 10,2 13,3 31 17 49 27 N 1011,4 10 0 0,0
14.11.2017 13:00:00 10,5 5,0 8,6 13,3 29 16 45 24 N 1011,1 10 0 0,0
14.11.2017 12:00:00 9,5 5,3 7,7 13,4 26 14 51 28 N 1011,0 10 0 0,6

tt = Température de l'air
td = dewpoint
tt 5cm = Température de l'air 5cm
tt -20cm = Température de l'air -20cm
ff = Vitesse du vent
fx = gusts
dd = Direction du vent
ppp = reduced air pressure
vv = visibility
sd = Ensoleillement
rr = Quantités de précipitations

stations d'obs. à proximité